Wind_Speed
16 17 17 18 18 19 20 20 20 20 19 19 19 18 18 18 18 18 18 17 17 17 17 17 16 16 16 16 16 17 17 17 16 16 17 17 16 15 15 15 15 14 14
19 19 19 20 20 19 19 19 19 20 20 20 21 21 21 20 20 20 19 19 18 18 18 18 18 18 17 18 18 18 17 17 17 17 18 17 17 16 16 15 15 14 14
20 20 20 19 20 20 20 20 21 21 21 21 21 22 22 21 21 21 20 19 19 19 19 19 19 19 18 19 19 19 18 18 18 18 18 18 18 17 17 16 16 15 15
21 20 21 20 21 21 21 21 22 22 22 21 22 21 21 21 21 20 20 20 20 20 20 20 20 19 20 19 20 19 19 19 19 19 19 19 19 19 18 17 17 17 17
22 21 21 21 22 23 23 22 22 22 22 21 21 21 21 21 21 21 20 20 21 21 21 21 21 21 20 20 21 21 20 19 19 19 19 19 19 19 19 19 19 19 18
23 23 23 22 22 23 23 23 23 22 22 22 21 21 22 22 22 22 22 22 21 22 22 21 21 21 21 21 21 21 21 20 20 20 20 20 21 21 20 20 20 20 19
23 24 23 23 23 23 24 23 23 24 23 23 23 23 23 24 24 23 23 23 23 23 23 22 22 23 23 23 23 22 22 22 22 22 22 21 21 22 22 21 21 21 20
24 24 24 25 25 25 25 24 25 25 24 24 24 25 25 25 25 25 25 25 24 24 23 23 24 24 25 25 25 24 23 23 23 23 23 23 22 22 22 22 22 22 21
26 26 26 26 27 27 26 26 26 26 26 26 26 26 26 26 26 26 26 25 25 24 24 24 25 25 25 25 25 25 24 24 24 24 24 23 23 23 22 22 22 22 22
28 28 27 28 28 27 27 27 27 28 27 27 27 27 27 27 27 27 27 26 26 25 26 25 25 26 26 25 25 26 26 26 26 25 25 24 24 24 24 23 23 23 23
29 29 28 28 28 28 28 28 28 28 28 27 27 27 27 28 28 28 27 27 27 27 27 27 27 26 26 26 26 26 26 27 27 26 26 26 26 25 25 24 24 24 24
30 30 29 29 29 29 29 28 28 28 27 27 27 28 28 28 28 28 28 28 28 28 28 28 28 28 28 27 27 27 27 27 27 27 26 26 26 26 26 25 25 25 25
30 30 30 30 30 29 29 28 28 29 29 29 29 29 28 28 28 28 28 28 28 28 28 28 28 28 29 28 28 29 29 28 29 28 27 27 27 27 28 27 27 27 27
30 30 30 30 30 30 30 29 30 30 30 30 30 30 30 30 29 29 29 28 29 29 29 29 29 29 29 29 29 30 31 31 31 30 29 29 29 29 29 28 29 28 28
29 29 29 29 30 30 30 31 31 30 30 30 30 31 31 31 31 30 29 29 28 28 29 29 29 30 29 29 30 31 31 32 31 31 30 30 30 30 30 29 29 29 29
29 29 29 29 29 30 30 30 30 30 30 31 31 30 30 31 31 30 29 29 29 29 29 29 29 30 30 30 30 30 31 31 31 31 31 32 31 31 31 31 30 30 30
29 29 29 30 30 30 30 29 29 29 30 31 31 31 30 30 30 30 30 30 30 30 30 29 29 30 30 31 31 31 31 31 32 32 31 31 31 32 32 32 32 32 32
30 30 30 30 30 30 30 30 30 30 30 30 29 29 30 30 30 30 30 30 30 30 30 30 30 30 30 30 31 31 31 31 31 32 32 32 32 33 33 33 33 33 33
30 30 30 31 31 30 30 29 29 30 29 29 29 29 29 30 30 30 31 31 31 31 30 30 30 30 30 30 31 31 31 31 32 32 32 33 34 34 34 34 34 34 34
30 30 30 30 30 30 29 29 28 29 28 28 28 28 29 29 29 30 31 31 31 32 31 31 31 31 30 31 31 32 32 32 33 33 33 33 34 34 34 35 35 35 35
29 29 29 30 29 29 29 28 28 28 28 28 28 28 29 29 30 30 30 31 32 32 32 32 31 31 31 31 31 31 32 32 33 33 33 34 34 34 34 34 34 35 35
28 29 29 29 28 28 28 28 27 27 27 26 26 27 28 29 30 30 30 31 31 31 31 31 32 32 32 31 32 33 32 32 33 33 33 33 33 34 34 34 34 34 34
26 27 28 28 28 27 27 27 27 26 26 26 26 27 28 29 29 30 30 30 31 32 33 33 33 32 32 32 33 33 32 32 32 33 33 33 33 33 33 34 34 34 35
26 26 26 26 26 25 25 26 26 26 26 26 26 27 28 29 29 29 29 29 30 31 32 32 32 32 31 31 32 32 32 32 33 33 33 34 34 34 34 33 33 34 34
26 25 25 25 25 25 25 25 25 25 26 26 27 27 28 28 28 28 29 29 30 31 31 31 32 32 32 31 31 32 32 32 32 32 32 33 33 33 34 33 33 33 33
25 25 25 25 25 25 25 25 25 25 26 26 26 26 27 27 28 28 29 29 30 30 30 31 31 31 32 31 31 30 30 30 30 30 31 32 32 32 33 33 33 33 33
Wind_Direction
275 275 274 274 274 274 269 267 268 268 270 271 270 271 272 270 270 272 274 274 274 272 273 272 271 268 266 264 264 266 267 264 260 258 260 262 263 263 264 265 266 268 269
275 274 272 274 275 272 269 267 269 271 272 272 271 272 272 271 270 270 271 272 272 271 271 271 270 268 267 264 263 264 266 266 263 259 258 260 260 261 262 265 264 266 266
274 273 271 273 274 273 270 269 269 271 272 272 274 273 273 272 272 271 270 270 269 268 269 269 268 267 267 264 263 263 263 264 262 261 259 259 258 259 261 263 264 266 265
274 272 270 271 270 268 270 270 270 271 271 272 273 274 275 273 274 274 272 270 269 267 266 267 267 266 265 266 263 261 260 261 261 261 261 260 259 260 261 261 262 265 266
273 272 269 270 269 268 269 268 269 271 271 271 271 271 272 273 273 274 272 270 270 267 264 265 266 264 264 264 262 259 259 260 260 261 260 260 259 260 260 260 262 263 264
270 270 270 268 268 269 270 270 270 271 272 270 270 271 271 271 272 271 271 271 270 268 265 263 264 264 263 262 260 260 259 260 261 261 261 260 259 259 260 261 263 262 262
273 270 271 269 269 269 270 271 271 271 271 269 271 271 271 271 270 271 273 270 269 268 266 263 262 262 262 261 258 257 258 258 260 261 261 262 263 261 261 260 261 261 262
273 272 272 271 270 270 271 271 271 272 272 271 271 271 271 271 271 271 271 272 270 268 266 265 263 263 262 261 259 258 257 257 260 262 263 264 263 261 261 261 261 261 261
272 272 271 272 270 268 269 270 270 269 269 269 271 270 270 269 269 270 271 271 270 268 268 266 264 264 263 262 260 257 256 257 259 261 262 263 262 262 262 260 261 261 260
270 269 270 271 270 268 269 268 268 268 268 269 269 270 270 269 269 270 270 269 269 268 268 266 265 264 263 261 260 257 256 257 258 259 260 261 262 262 262 262 261 262 261
271 268 268 269 269 271 270 269 267 267 267 267 267 268 269 268 269 269 269 269 268 267 267 266 265 263 263 261 260 259 258 259 257 257 258 261 262 262 262 261 261 262 262
271 268 268 269 269 271 271 270 267 267 267 266 267 267 268 268 268 268 268 269 267 266 267 265 264 263 262 261 260 260 259 258 257 257 258 260 261 260 260 261 262 262 264
272 271 269 269 270 270 269 268 267 266 266 266 267 268 268 267 266 266 267 267 266 266 266 265 264 264 262 261 259 258 258 258 257 257 257 257 259 259 260 260 261 262 264
275 275 273 272 271 269 268 266 266 266 267 266 266 266 266 266 265 265 265 265 266 265 266 265 265 264 263 260 259 258 258 258 257 255 255 255 256 257 259 260 261 263 263
275 275 276 275 272 271 271 270 269 267 267 266 266 265 264 264 265 265 266 266 267 266 266 266 266 265 264 262 261 261 261 259 256 256 256 257 259 259 259 261 262 263 263
274 277 277 276 275 273 272 271 271 271 270 269 267 267 266 264 263 265 266 267 268 268 267 267 265 264 264 262 261 262 261 260 258 258 258 259 260 259 259 261 262 263 262
278 279 278 276 276 275 272 273 273 271 271 270 269 268 268 267 264 264 265 266 267 267 268 268 267 265 264 261 262 262 261 259 259 258 259 259 259 259 260 262 263 263 264
277 278 278 277 276 276 273 273 273 271 269 268 268 269 268 267 265 264 265 266 266 267 268 268 267 266 263 261 261 261 261 260 259 259 259 260 260 260 261 262 263 264 265
277 278 277 277 276 276 274 273 272 271 269 268 267 267 268 268 267 266 266 266 266 267 267 267 267 266 263 261 260 259 260 260 260 260 261 262 262 262 262 263 264 265 265
276 276 276 276 276 275 274 272 272 271 271 269 268 267 268 269 270 269 269 267 266 266 266 266 266 265 263 261 260 260 260 261 262 262 262 263 264 264 264 264 265 265 266
275 276 276 275 275 274 274 273 273 271 270 269 269 269 270 270 270 270 270 268 267 266 265 265 265 264 263 262 260 261 262 262 263 264 264 264 264 265 265 265 265 266 266
277 277 277 276 275 274 273 273 273 274 272 271 271 271 273 273 273 272 271 269 267 265 264 264 265 264 264 265 263 262 263 263 263 263 264 264 265 265 265 265 266 267 267
278 279 278 277 276 274 272 272 273 273 272 271 271 271 273 274 274 274 273 271 268 266 265 265 265 265 265 266 265 264 263 264 263 263 264 265 266 266 266 266 266 266 266
277 277 277 278 277 275 273 272 273 273 273 272 273 273 274 275 276 274 273 272 270 268 266 266 266 265 266 266 265 265 265 265 265 265 265 265 266 266 266 266 266 266 266
275 275 276 277 278 276 273 272 273 274 275 275 276 275 275 276 276 275 273 272 271 268 267 266 266 265 265 265 265 265 265 266 265 265 265 266 266 266 266 266 266 265 265
274 274 275 275 276 275 273 272 273 274 275 276 277 278 278 278 277 276 275 273 272 270 267 266 266 266 265 264 265 265 266 265 265 265 267 268 267 267 266 267 266 265 265
Height
5829 5829 5828 5828 5828 5827 5827 5827 5827 5827 5826 5826 5826 5826 5827 5827 5827 5826 5826 5826 5826 5826 5826 5826 5826 5826 5826 5826 5826 5827 5827 5828 5829 5829 5830 5830 5831 5832 5832 5833 5833 5833 5833
5824 5823 5823 5823 5822 5822 5822 5822 5822 5821 5821 5821 5821 5821 5821 5821 5821 5821 5820 5820 5820 5820 5821 5821 5821 5821 5821 5822 5822 5823 5823 5823 5824 5825 5826 5827 5827 5828 5828 5829 5829 5830 5830
5817 5817 5816 5816 5817 5817 5816 5816 5816 5816 5816 5816 5815 5815 5815 5815 5814 5814 5814 5814 5814 5815 5815 5815 5816 5816 5817 5817 5817 5818 5818 5819 5820 5821 5822 5822 5823 5823 5824 5825 5826 5826 5826
5810 5810 5810 5810 5810 5810 5810 5810 5810 5810 5810 5810 5809 5809 5808 5808 5808 5808 5808 5808 5808 5809 5809 5810 5810 5811 5811 5812 5812 5813 5813 5814 5815 5816 5817 5818 5818 5819 5820 5821 5821 5822 5822
5804 5804 5804 5804 5804 5804 5803 5804 5804 5804 5804 5803 5803 5803 5803 5803 5803 5802 5802 5803 5803 5803 5803 5804 5804 5805 5805 5806 5807 5807 5808 5809 5810 5811 5812 5813 5813 5814 5815 5816 5816 5817 5817
5797 5797 5797 5797 5797 5797 5797 5797 5797 5797 5797 5797 5797 5797 5797 5797 5797 5797 5796 5796 5797 5797 5797 5797 5798 5799 5799 5800 5801 5801 5802 5803 5804 5805 5806 5807 5808 5809 5810 5810 5811 5812 5813
5789 5789 5790 5790 5790 5790 5790 5790 5789 5789 5789 5789 5790 5790 5790 5790 5790 5790 5790 5790 5790 5790 5790 5791 5791 5792 5793 5794 5794 5795 5796 5798 5799 5800 5801 5802 5802 5803 5804 5805 5805 5806 5807
5781 5782 5782 5782 5783 5782 5782 5782 5782 5782 5781 5782 5782 5783 5783 5783 5783 5783 5783 5783 5783 5783 5783 5784 5784 5785 5785 5786 5787 5788 5790 5791 5793 5794 5795 5795 5796 5797 5798 5798 5799 5800 5801
5774 5774 5774 5774 5774 5774 5774 5774 5774 5774 5774 5774 5775 5775 5775 5775 5775 5775 5775 5775 5775 5775 5776 5776 5777 5778 5778 5779 5780 5781 5783 5784 5785 5787 5788 5788 5789 5790 5791 5792 5793 5793 5795
5765 5765 5765 5765 5765 5765 5765 5765 5765 5766 5766 5766 5766 5766 5767 5767 5767 5767 5767 5767 5767 5768 5768 5769 5769 5770 5771 5771 5772 5774 5775 5777 5778 5779 5780 5781 5782 5783 5784 5785 5786 5787 5788
5756 5756 5756 5756 5756 5756 5755 5755 5756 5756 5757 5757 5758 5758 5758 5759 5758 5758 5758 5758 5759 5759 5760 5760 5761 5762 5763 5764 5765 5766 5768 5769 5770 5771 5773 5774 5775 5776 5777 5777 5778 5779 5780
5747 5747 5747 5748 5747 5746 5746 5746 5747 5747 5748 5748 5749 5749 5750 5750 5750 5749 5749 5750 5750 5751 5751 5752 5753 5754 5755 5756 5757 5758 5759 5761 5762 5764 5765 5766 5767 5768 5769 5770 5771 5772 5773
5738 5738 5738 5738 5738 5737 5737 5737 5738 5738 5739 5739 5740 5740 5741 5741 5741 5741 5741 5741 5741 5742 5743 5743 5744 5745 5746 5747 5748 5749 5751 5752 5754 5755 5757 5758 5759 5760 5761 5762 5763 5764 5764
5730 5729 5729 5728 5728 5728 5728 5728 5729 5729 5730 5730 5730 5731 5731 5731 5732 5732 5732 5732 5732 5733 5734 5734 5735 5736 5737 5738 5739 5740 5741 5743 5744 5746 5748 5749 5750 5751 5752 5753 5754 5755 5756
5720 5720 5719 5719 5718 5718 5718 5719 5719 5720 5720 5720 5721 5721 5721 5722 5722 5723 5723 5723 5723 5724 5725 5725 5726 5727 5728 5729 5730 5731 5732 5733 5735 5736 5738 5740 5741 5742 5743 5744 5745 5746 5747
5711 5710 5710 5709 5709 5709 5709 5709 5709 5709 5710 5710 5711 5711 5711 5712 5712 5713 5713 5714 5714 5715 5715 5716 5717 5718 5718 5719 5720 5721 5722 5723 5725 5727 5729 5730 5731 5733 5734 5735 5736 5737 5738
5702 5701 5701 5700 5699 5698 5699 5699 5700 5700 5700 5700 5700 5700 5701 5702 5702 5703 5704 5704 5705 5705 5706 5707 5707 5708 5709 5710 5711 5712 5713 5714 5715 5717 5719 5720 5721 5723 5724 5725 5726 5727 5728
5693 5692 5692 5691 5690 5690 5690 5690 5690 5690 5690 5690 5690 5690 5691 5691 5692 5693 5694 5694 5695 5696 5696 5697 5698 5698 5699 5700 5701 5702 5703 5704 5705 5707 5708 5710 5711 5713 5714 5715 5716 5717 5717
5683 5683 5682 5681 5681 5680 5680 5680 5680 5680 5680 5681 5681 5681 5681 5681 5682 5683 5683 5684 5685 5685 5686 5687 5688 5688 5689 5690 5691 5692 5693 5695 5696 5697 5698 5700 5701 5702 5703 5704 5705 5706 5707
5674 5673 5672 5671 5671 5671 5670 5670 5671 5671 5671 5671 5671 5672 5671 5671 5672 5672 5673 5673 5674 5675 5676 5677 5678 5679 5679 5680 5681 5682 5683 5684 5686 5687 5688 5689 5690 5691 5692 5693 5694 5695 5696
5663 5663 5663 5662 5662 5662 5661 5662 5662 5662 5662 5662 5662 5662 5662 5662 5662 5662 5662 5663 5663 5664 5665 5666 5667 5668 5669 5670 5671 5671 5673 5674 5675 5676 5677 5678 5679 5680 5681 5682 5683 5684 5684
5654 5654 5653 5653 5652 5652 5652 5653 5653 5653 5653 5653 5653 5653 5653 5652 5652 5652 5652 5652 5653 5654 5655 5656 5657 5657 5658 5659 5660 5661 5662 5663 5664 5665 5666 5667 5667 5668 5669 5670 5671 5672 5673
5645 5645 5645 5644 5644 5644 5643 5643 5643 5643 5643 5643 5643 5643 5643 5642 5642 5642 5642 5642 5642 5643 5644 5645 5646 5647 5648 5648 5649 5650 5651 5652 5653 5654 5655 5656 5656 5657 5658 5659 5660 5660 5661
5637 5636 5636 5636 5635 5635 5635 5634 5634 5635 5635 5634 5634 5633 5633 5633 5632 5632 5631 5631 5631 5632 5633 5634 5635 5636 5637 5637 5638 5639 5640 5641 5642 5643 5644 5644 5645 5646 5646 5647 5648 5649 5649
5629 5628 5627 5627 5627 5626 5626 5626 5626 5626 5625 5625 5625 5624 5623 5622 5622 5622 5621 5621 5621 5621 5622 5623 5624 5625 5626 5627 5628 5629 5630 5630 5631 5632 5632 5633 5633 5634 5635 5636 5636 5637 5638
5620 5619 5619 5618 5618 5617 5617 5617 5617 5617 5616 5616 5615 5614 5614 5613 5612 5612 5611 5611 5610 5611 5611 5612 5613 5614 5615 5616 5617 5618 5619 5620 5620 5621 5621 5622 5622 5623 5623 5624 5625 5625 5626